,,,PA_Meas_PMT16A,,PR_Meas_QMR101_102,,RH_Meas_QMH101,,SR_Meas_QMS101,,TA_Meas_QMH101,,GenWind,,GenWind,
date,time,status,PA,status,PR,status,RH,status,SR,status,TA,status,DirAvg,status,SpdAvg,
2009-01-19, 00:00:04,VALID,999.891,VALID,0,VALID,93.4247,VALID,0,VALID,24.3099,VALID,107,VALID,0.346094,
2009-01-19, 00:01:04,VALID,999.85,VALID,0,VALID,93.1348,VALID,0,VALID,24.2903,VALID,107,VALID,0.163281,
2009-01-19, 00:02:04,VALID,999.84,VALID,0,VALID,93.089,VALID,0,VALID,24.2708,VALID,107,VALID,0.19375,
2009-01-19, 00:03:04,VALID,999.825,VALID,0,VALID,93.3484,VALID,0,VALID,24.2708,VALID,107,VALID,0.333984,
2009-01-19, 00:04:04,VALID,999.799,VALID,0,VALID,93.5086,VALID,0,VALID,24.269,VALID,104,VALID,0.571875,
2009-01-19, 00:05:04,VALID,999.804,VALID,0,VALID,93.4857,VALID,0,VALID,24.2885,VALID,103,VALID,0.647656,
2009-01-19, 00:06:04,VALID,999.793,VALID,0,VALID,93.3942,VALID,0,VALID,24.2885,VALID,104,VALID,0.817187,
2009-01-19, 00:07:04,VALID,999.781,VALID,0,VALID,93.2568,VALID,0,VALID,24.269,VALID,103,VALID,0.508984,
2009-01-19, 00:08:04,VALID,999.776,VALID,0,VALID,93.1043,VALID,0,VALID,24.269,VALID,91,VALID,0.539063,
2009-01-19, 00:09:04,VALID,999.787,VALID,0,VALID,93.089,VALID,0,VALID,24.2708,VALID,108,VALID,0.251953,
2009-01-19, 00:10:04,VALID,999.764,VALID,0,VALID,93.1195,VALID,0,VALID,24.2708,VALID,104,VALID,0.239063,
2009-01-19, 00:11:04,VALID,999.771,VALID,0,VALID,93.1271,VALID,0,VALID,24.2708,VALID,88,VALID,0.0867188,
2009-01-19, 00:12:04,VALID,999.743,VALID,0,VALID,92.8296,VALID,0,VALID,24.2123,VALID,7,VALID,0.139453,
2009-01-19, 00:13:04,VALID,999.748,VALID,0,VALID,92.7685,VALID,0,VALID,24.1732,VALID,7,VALID,0,
2009-01-19, 00:14:04,VALID,999.744,VALID,0,VALID,92.9898,VALID,0,VALID,24.1732,VALID,7,VALID,0,
2009-01-19, 00:15:04,VALID,999.746,VALID,0,VALID,93.2263,VALID,0,VALID,24.1732,VALID,7,VALID,0,
2009-01-19, 00:16:04,VALID,999.72,VALID,0,VALID,93.356,VALID,0,VALID,24.1732,VALID,7,VALID,0.376563,
2009-01-19, 00:17:04,VALID,999.748,VALID,0,VALID,93.4323,VALID,0,VALID,24.1732,VALID,7,VALID,0.511328,
2009-01-19, 00:18:04,VALID,999.729,VALID,0,VALID,93.4094,VALID,0,VALID,24.1732,VALID,2,VALID,0.528125,
2009-01-19, 00:19:04,VALID,999.727,VALID,0,VALID,93.5239,VALID,0,VALID,24.1927,VALID,342,VALID,0.566016,
2009-01-19, 00:20:04,VALID,999.739,VALID,0,VALID,93.5315,VALID,0,VALID,24.2318,VALID,342,VALID,0.441406,
2009-01-19, 00:21:04,VALID,999.72,VALID,0,VALID,93.5239,VALID,0,VALID,24.2513,VALID,342,VALID,0.219141,
2009-01-19, 00:22:04,VALID,999.721,VALID,0,VALID,93.4094,VALID,0,VALID,24.2513,VALID,342,VALID,0.0148437,
2009-01-19, 00:23:04,VALID,999.736,VALID,0,VALID,93.4552,VALID,0,VALID,24.2299,VALID,342,VALID,0.331641,
2009-01-19, 00:24:04,VALID,999.725,VALID,0,VALID,93.2797,VALID,0,VALID,24.2708,VALID,1,VALID,0.227734,
2009-01-19, 00:25:04,VALID,999.705,VALID,0,VALID,93.3103,VALID,0,VALID,24.2495,VALID,56,VALID,0.426562,
2009-01-19, 00:26:04,VALID,999.668,VALID,0,VALID,93.2416,VALID,0,VALID,24.2885,VALID,98,VALID,0.660547,
2009-01-19, 00:27:04,VALID,999.644,VALID,0,VALID,92.9974,VALID,0,VALID,24.3099,VALID,139,VALID,0.472656,
2009-01-19, 00:28:04,VALID,999.638,VALID,0,VALID,92.8525,VALID,0,VALID,24.3099,VALID,139,VALID,0.159375,
2009-01-19, 00:29:04,VALID,999.643,VALID,0,VALID,92.7991,VALID,0,VALID,24.3099,VALID,139,VALID,0,
2009-01-19, 00:30:04,VALID,999.653,VALID,0,VALID,92.7914,VALID,0,VALID,24.3099,VALID,139,VALID,0,
2009-01-19, 00:31:04,VALID,999.618,VALID,0,VALID,92.8525,VALID,0,VALID,24.3099,VALID,140,VALID,0.477734,
2009-01-19, 00:32:04,VALID,999.645,VALID,0,VALID,92.822,VALID,0,VALID,24.3099,VALID,140,VALID,0.610937,
2009-01-19, 00:33:04,VALID,999.621,VALID,0,VALID,92.9364,VALID,0,VALID,24.269,VALID,140,VALID,0.514063,
2009-01-19, 00:34:04,VALID,999.626,VALID,0,VALID,93.0127,VALID,0,VALID,24.269,VALID,140,VALID,0.253125,
2009-01-19, 00:35:04,VALID,999.642,VALID,0,VALID,93.0585,VALID,0,VALID,24.2708,VALID,140,VALID,0,
2009-01-19, 00:36:04,VALID,999.64,VALID,0,VALID,93.1348,VALID,0,VALID,24.2708,VALID,140,VALID,0.104297,
2009-01-19, 00:37:04,VALID,999.636,VALID,0,VALID,93.2416,VALID,0,VALID,24.269,VALID,140,VALID,0.482031,
2009-01-19, 00:38:04,VALID,999.671,VALID,0,VALID,93.1424,VALID,0,VALID,24.269,VALID,140,VALID,0.412891,
2009-01-19, 00:39:04,VALID,999.665,VALID,0,VALID,93.0356,VALID,0,VALID,24.2885,VALID,140,VALID,0.462891,
2009-01-19, 00:40:04,VALID,999.69,VALID,0,VALID,92.8677,VALID,0,VALID,24.2885,VALID,139,VALID,0.514844,
2009-01-19, 00:41:04,VALID,999.713,VALID,0,VALID,92.8448,VALID,0,VALID,24.3294,VALID,139,VALID,0.798437,
2009-01-19, 00:42:04,VALID,999.686,VALID,0,VALID,92.6465,VALID,0,VALID,24.3294,VALID,136,VALID,0.610156,
2009-01-19, 00:43:04,VALID,999.675,VALID,0,VALID,92.5626,VALID,0,VALID,24.3275,VALID,132,VALID,0.445313,
2009-01-19, 00:44:04,VALID,999.696,VALID,0,VALID,92.532,VALID,0,VALID,24.308,VALID,144,VALID,0.385938,
2009-01-19, 00:45:04,VALID,999.704,VALID,0,VALID,92.5244,VALID,0,VALID,24.3294,VALID,144,VALID,0.297656,
2009-01-19, 00:46:04,VALID,999.702,VALID,0,VALID,92.6541,VALID,0,VALID,24.3294,VALID,144,VALID,0.440234,
2009-01-19, 00:47:04,VALID,999.689,VALID,0,VALID,92.7762,VALID,0,VALID,24.3294,VALID,146,VALID,0.300391,
2009-01-19, 00:48:04,VALID,999.691,VALID,0,VALID,92.7533,VALID,0,VALID,24.3294,VALID,131,VALID,0.534766,
2009-01-19, 00:49:04,VALID,999.71,VALID,0,VALID,92.7991,VALID,0,VALID,24.308,VALID,131,VALID,0.404687,
2009-01-19, 00:50:04,VALID,999.676,VALID,0,VALID,92.7991,VALID,0,VALID,24.308,VALID,131,VALID,0.407422,
2009-01-19, 00:51:04,VALID,999.671,VALID,0,VALID,92.6617,VALID,0,VALID,24.3275,VALID,126,VALID,0.545703,
2009-01-19, 00:52:04,VALID,999.693,VALID,0,VALID,92.616,VALID,0,VALID,24.3489,VALID,110,VALID,0.622656,
2009-01-19, 00:53:04,VALID,999.704,VALID,0,VALID,92.4481,VALID,0,VALID,24.3275,VALID,99,VALID,0.724609,
2009-01-19, 00:54:04,VALID,999.697,VALID,0,VALID,92.2574,VALID,0,VALID,24.3275,VALID,99,VALID,0.631641,
2009-01-19, 00:55:04,VALID,999.687,VALID,0,VALID,92.3413,VALID,0,VALID,24.3275,VALID,99,VALID,0.716797,
2009-01-19, 00:56:04,VALID,999.659,VALID,0,VALID,92.3031,VALID,0,VALID,24.2885,VALID,99,VALID,0.290625,
2009-01-19, 00:57:04,VALID,999.676,VALID,0,VALID,92.3337,VALID,0,VALID,24.269,VALID,99,VALID,0.0914062,
2009-01-19, 00:58:04,VALID,999.631,VALID,0,VALID,92.3413,VALID,0,VALID,24.2708,VALID,100,VALID,0.0078125,
2009-01-19, 00:59:04,VALID,999.638,VALID,0,VALID,92.2421,VALID,0,VALID,24.2513,VALID,106,VALID,0.180859,
2009-01-19, 01:00:04,VALID,999.6,VALID,0,VALID,92.265,VALID,0,VALID,24.2318,VALID,110,VALID,0.0835937,
2009-01-19, 01:01:04,VALID,999.572,VALID,0,VALID,92.41,VALID,0,VALID,24.2123,VALID,110,VALID,0.182031,
2009-01-19, 01:02:04,VALID,999.544,VALID,0,VALID,92.3108,VALID,0,VALID,24.1909,VALID,110,VALID,0.146484,
2009-01-19, 01:03:04,VALID,999.539,VALID,0,VALID,92.2955,VALID,0,VALID,24.1909,VALID,110,VALID,0.279687,
2009-01-19, 01:04:04,VALID,999.467,VALID,0,VALID,92.5168,VALID,0,VALID,24.1909,VALID,94,VALID,0.536328,
2009-01-19, 01:05:04,VALID,999.43,VALID,0,VALID,92.5168,VALID,0,VALID,24.1909,VALID,94,VALID,0.395703,
2009-01-19, 01:06:04,VALID,999.41,VALID,0,VALID,92.2803,VALID,0,VALID,24.1927,VALID,44,VALID,0.384766,
2009-01-19, 01:07:04,VALID,999.411,VALID,0,VALID,92.4786,VALID,0,VALID,24.1714,VALID,44,VALID,0.369531,
2009-01-19, 01:08:04,VALID,999.386,VALID,0,VALID,92.7685,VALID,0,VALID,24.1732,VALID,44,VALID,0.108594,
2009-01-19, 01:09:04,VALID,999.358,VALID,0,VALID,92.7685,VALID,0,VALID,24.1732,VALID,44,VALID,0,
2009-01-19, 01:10:04,VALID,999.346,VALID,0,VALID,92.7762,VALID,0,VALID,24.1732,VALID,44,VALID,0,
2009-01-19, 01:11:04,VALID,999.333,VALID,0,VALID,92.6312,VALID,0,VALID,24.1537,VALID,44,VALID,0,
2009-01-19, 01:12:04,VALID,999.357,VALID,0,VALID,92.6541,VALID,0,VALID,24.1537,VALID,44,VALID,0,
2009-01-19, 01:13:04,VALID,999.337,VALID,0,VALID,92.6083,VALID,0,VALID,24.1128,VALID,44,VALID,0,
2009-01-19, 01:14:04,VALID,999.318,VALID,0,VALID,92.6923,VALID,0,VALID,24.1342,VALID,44,VALID,0,
2009-01-19, 01:15:04,VALID,999.304,VALID,0,VALID,92.738,VALID,0,VALID,24.0933,VALID,44,VALID,0,
2009-01-19, 01:16:04,VALID,999.308,VALID,0,VALID,92.7762,VALID,0,VALID,24.0933,VALID,44,VALID,0,
2009-01-19, 01:17:04,VALID,999.32,VALID,0,VALID,92.8067,VALID,0,VALID,24.0738,VALID,44,VALID,0,
2009-01-19, 01:18:04,VALID,999.284,VALID,0,VALID,92.7991,VALID,0,VALID,24.0348,VALID,44,VALID,0,
2009-01-19, 01:19:04,VALID,999.284,VALID,0,VALID,92.7838,VALID,0,VALID,24.0153,VALID,44,VALID,0,
2009-01-19, 01:20:04,VALID,999.269,VALID,0,VALID,92.8983,VALID,0,VALID,23.9957,VALID,44,VALID,0,
2009-01-19, 01:21:04,VALID,999.259,VALID,0,VALID,93.0966,VALID,0,VALID,24.0171,VALID,44,VALID,0,
2009-01-19, 01:22:04,VALID,999.229,VALID,0,VALID,93.0356,VALID,0,VALID,23.9957,VALID,44,VALID,0,
2009-01-19, 01:23:04,VALID,999.184,VALID,0,VALID,93.0737,VALID,0,VALID,23.9957,VALID,44,VALID,0,
2009-01-19, 01:24:04,VALID,999.183,VALID,0,VALID,93.1119,VALID,0,VALID,23.9957,VALID,44,VALID,0,
2009-01-19, 01:25:04,VALID,999.159,VALID,0,VALID,93.1424,VALID,0,VALID,24.0153,VALID,44,VALID,0,
2009-01-19, 01:26:04,VALID,999.122,VALID,0,VALID,93.1882,VALID,0,VALID,24.0366,VALID,126,VALID,0.435547,
2009-01-19, 01:27:04,VALID,999.069,VALID,0,VALID,93.1958,VALID,0,VALID,24.0366,VALID,126,VALID,0.494141,
2009-01-19, 01:28:04,VALID,999.069,VALID,0,VALID,93.1653,VALID,0,VALID,24.0561,VALID,126,VALID,0.639453,
2009-01-19, 01:29:04,VALID,999.08,VALID,0,VALID,93.0966,VALID,0,VALID,24.0561,VALID,126,VALID,0.382031,
2009-01-19, 01:30:04,VALID,999.052,VALID,0,VALID,93.0814,VALID,0,VALID,24.0756,VALID,126,VALID,0.0195313,
2009-01-19, 01:31:04,VALID,999.045,VALID,0,VALID,92.8983,VALID,0,VALID,24.0756,VALID,126,VALID,0,
2009-01-19, 01:32:04,VALID,998.975,VALID,0,VALID,92.7685,VALID,0,VALID,24.0756,VALID,118,VALID,0.00429688,
2009-01-19, 01:33:04,VALID,998.988,VALID,0,VALID,92.7914,VALID,0,VALID,24.0561,VALID,44,VALID,0.673437,
2009-01-19, 01:34:04,VALID,998.993,VALID,0,VALID,92.9822,VALID,0,VALID,24.0543,VALID,44,VALID,0.730859,
2009-01-19, 01:35:04,VALID,998.991,VALID,0,VALID,93.0203,VALID,0,VALID,24.0951,VALID,58,VALID,0.827344,
2009-01-19, 01:36:04,VALID,998.977,VALID,0,VALID,92.7151,VALID,0,VALID,24.1147,VALID,85,VALID,0.833984,
2009-01-19, 01:37:04,VALID,998.982,VALID,0,VALID,92.7151,VALID,0,VALID,24.1537,VALID,92,VALID,0.844922,
2009-01-19, 01:38:04,VALID,998.979,VALID,0,VALID,92.6465,VALID,0,VALID,24.1537,VALID,111,VALID,0.486328,
2009-01-19, 01:39:04,VALID,999.001,VALID,0,VALID,92.677,VALID,0,VALID,24.1732,VALID,111,VALID,0.539063,
2009-01-19, 01:40:04,VALID,999.012,VALID,0,VALID,92.6923,VALID,0,VALID,24.1732,VALID,111,VALID,0.427734,
2009-01-19, 01:41:04,VALID,998.999,VALID,0,VALID,92.7304,VALID,0,VALID,24.1519,VALID,111,VALID,0.341016,
2009-01-19, 01:42:04,VALID,999,VALID,0,VALID,92.6923,VALID,0,VALID,24.1519,VALID,111,VALID,0.311719,
2009-01-19, 01:43:04,VALID,998.956,VALID,0,VALID,92.6999,VALID,0,VALID,24.1927,VALID,111,VALID,0.146094,
2009-01-19, 01:44:04,VALID,998.942,VALID,0,VALID,92.6694,VALID,0,VALID,24.1927,VALID,111,VALID,0,
2009-01-19, 01:45:04,VALID,998.919,VALID,0,VALID,92.7151,VALID,0,VALID,24.1732,VALID,111,VALID,0,
2009-01-19, 01:46:04,VALID,998.925,VALID,0,VALID,92.7457,VALID,0,VALID,24.1714,VALID,111,VALID,0,
2009-01-19, 01:47:04,VALID,998.937,VALID,0,VALID,92.8143,VALID,0,VALID,24.1927,VALID,111,VALID,0,
2009-01-19, 01:48:04,VALID,998.933,VALID,0,VALID,93.028,VALID,0,VALID,24.1732,VALID,136,VALID,0.280859,
2009-01-19, 01:49:04,VALID,998.902,VALID,0,VALID,92.9745,VALID,0,VALID,24.2104,VALID,153,VALID,0.891797,
2009-01-19, 01:50:04,VALID,998.906,VALID,0,VALID,92.7762,VALID,0.112286,VALID,24.2299,VALID,166,VALID,0.907031,
2009-01-19, 01:51:04,VALID,998.892,VALID,0,VALID,92.677,VALID,0,VALID,24.2281,VALID,153,VALID,0.841797,
2009-01-19, 01:52:04,VALID,998.875,VALID,0,VALID,92.4481,VALID,0,VALID,24.2495,VALID,158,VALID,1.03867,
2009-01-19, 01:53:04,VALID,998.874,VALID,0,VALID,92.2192,VALID,0,VALID,24.2885,VALID,149,VALID,0.823438,
2009-01-19, 01:54:04,VALID,998.863,VALID,0,VALID,91.9217,VALID,0,VALID,24.2885,VALID,131,VALID,0.851172,
2009-01-19, 01:55:04,VALID,998.816,VALID,0,VALID,92.0132,VALID,0.112286,VALID,24.308,VALID,137,VALID,0.426562,
2009-01-19, 01:56:04,VALID,998.825,VALID,0,VALID,91.647,VALID,0,VALID,24.2885,VALID,143,VALID,0.428516,
2009-01-19, 01:57:04,VALID,998.832,VALID,0,VALID,91.6699,VALID,0,VALID,24.2885,VALID,143,VALID,0,
2009-01-19, 01:58:04,VALID,998.817,VALID,0,VALID,91.7309,VALID,0.112286,VALID,24.2885,VALID,143,VALID,0,
2009-01-19, 01:59:04,VALID,998.816,VALID,0,VALID,91.7843,VALID,0,VALID,24.269,VALID,143,VALID,0,
2009-01-19, 02:00:04,VALID,998.838,VALID,0,VALID,91.8835,VALID,0,VALID,24.2495,VALID,143,VALID,0,
2009-01-19, 02:01:04,VALID,998.809,VALID,0,VALID,91.8835,VALID,0,VALID,24.2495,VALID,143,VALID,0,
2009-01-19, 02:02:04,VALID,998.821,VALID,0,VALID,91.914,VALID,0,VALID,24.2495,VALID,143,VALID,0,
2009-01-19, 02:03:04,VALID,998.798,VALID,0,VALID,91.9827,VALID,0,VALID,24.2299,VALID,143,VALID,0,
2009-01-19, 02:04:04,VALID,998.809,VALID,0,VALID,92.0132,VALID,0,VALID,24.2318,VALID,143,VALID,0,
2009-01-19, 02:05:04,VALID,998.777,VALID,0,VALID,92.1048,VALID,0,VALID,24.2123,VALID,143,VALID,0,
2009-01-19, 02:06:04,VALID,998.784,VALID,0,VALID,92.265,VALID,0,VALID,24.1909,VALID,143,VALID,0,
2009-01-19, 02:07:04,VALID,998.748,VALID,0,VALID,92.4023,VALID,0,VALID,24.2123,VALID,143,VALID,0,
2009-01-19, 02:08:04,VALID,998.772,VALID,0,VALID,92.5549,VALID,0,VALID,24.1927,VALID,143,VALID,0,
2009-01-19, 02:09:04,VALID,998.752,VALID,0,VALID,92.6923,VALID,0,VALID,24.1927,VALID,143,VALID,0,
2009-01-19, 02:10:04,VALID,998.798,VALID,0,VALID,92.8906,VALID,0,VALID,24.1909,VALID,143,VALID,0,
2009-01-19, 02:11:04,VALID,998.771,VALID,0,VALID,92.822,VALID,0,VALID,24.1714,VALID,143,VALID,0,
2009-01-19, 02:12:04,VALID,998.793,VALID,0,VALID,92.9288,VALID,0,VALID,24.1909,VALID,134,VALID,0.303516,
2009-01-19, 02:13:04,VALID,998.814,VALID,0,VALID,92.9364,VALID,0,VALID,24.1909,VALID,40,VALID,0.544531,
2009-01-19, 02:14:04,VALID,998.882,VALID,0,VALID,92.9211,VALID,0,VALID,24.1909,VALID,353,VALID,0.686328,
2009-01-19, 02:15:04,VALID,998.903,VALID,0,VALID,93.15,VALID,0,VALID,24.2299,VALID,339,VALID,0.597656,
2009-01-19, 02:16:04,VALID,998.923,VALID,0,VALID,93.1653,VALID,0,VALID,24.2708,VALID,331,VALID,0.550391,
2009-01-19, 02:17:04,VALID,998.962,VALID,0,VALID,93.1958,VALID,0,VALID,24.2708,VALID,300,VALID,0.426562,
2009-01-19, 02:18:04,VALID,998.962,VALID,0,VALID,93.1805,VALID,0,VALID,24.2885,VALID,302,VALID,0.406641,
2009-01-19, 02:19:04,VALID,998.951,VALID,0,VALID,93.1653,VALID,0,VALID,24.269,VALID,303,VALID,0.358203,
2009-01-19, 02:20:04,VALID,998.961,VALID,0,VALID,93.0661,VALID,0,VALID,24.269,VALID,303,VALID,0.304688,
2009-01-19, 02:21:04,VALID,998.938,VALID,0,VALID,93.0508,VALID,0,VALID,24.3099,VALID,303,VALID,0.211719,
2009-01-19, 02:22:04,VALID,998.953,VALID,0,VALID,92.9745,VALID,0,VALID,24.3099,VALID,302,VALID,0.339453,
2009-01-19, 02:23:04,VALID,998.942,VALID,0,VALID,92.9517,VALID,0,VALID,24.2885,VALID,302,VALID,0.210547,
2009-01-19, 02:24:04,VALID,998.931,VALID,0,VALID,92.9669,VALID,0,VALID,24.269,VALID,302,VALID,0.367188,
2009-01-19, 02:25:04,VALID,998.929,VALID,0,VALID,92.9211,VALID,0,VALID,24.2885,VALID,296,VALID,0.433594,
2009-01-19, 02:26:04,VALID,998.919,VALID,0,VALID,92.9059,VALID,0.112286,VALID,24.2885,VALID,296,VALID,0.301562,
2009-01-19, 02:27:04,VALID,998.93,VALID,0,VALID,92.9517,VALID,0,VALID,24.308,VALID,272,VALID,0.430859,
2009-01-19, 02:28:04,VALID,998.91,VALID,0,VALID,92.822,VALID,0,VALID,24.2885,VALID,273,VALID,0.371875,
2009-01-19, 02:29:04,VALID,998.901,VALID,0,VALID,92.9364,VALID,0,VALID,24.3489,VALID,273,VALID,0.298438,
2009-01-19, 02:30:04,VALID,998.899,VALID,0,VALID,92.9517,VALID,0,VALID,24.3489,VALID,273,VALID,0.183594,
2009-01-19, 02:31:04,VALID,998.917,VALID,0,VALID,92.8372,VALID,0,VALID,24.3275,VALID,273,VALID,0,
2009-01-19, 02:32:04,VALID,998.917,VALID,0,VALID,93.0432,VALID,0,VALID,24.347,VALID,273,VALID,0,
2009-01-19, 02:33:04,VALID,998.899,VALID,0,VALID,93.0432,VALID,0,VALID,24.3684,VALID,273,VALID,0,
2009-01-19, 02:34:04,VALID,998.902,VALID,0,VALID,92.8906,VALID,0,VALID,24.3275,VALID,273,VALID,0,
2009-01-19, 02:35:04,VALID,998.919,VALID,0,VALID,92.8754,VALID,0,VALID,24.3684,VALID,226,VALID,0.0117188,
2009-01-19, 02:36:04,VALID,998.904,VALID,0,VALID,92.738,VALID,0,VALID,24.3879,VALID,233,VALID,0.846875,
2009-01-19, 02:37:04,VALID,998.912,VALID,0,VALID,92.6083,VALID,0,VALID,24.3666,VALID,221,VALID,0.779688,
2009-01-19, 02:38:04,VALID,998.886,VALID,0,VALID,92.3566,VALID,0,VALID,24.4056,VALID,200,VALID,1.13125,
2009-01-19, 02:39:04,VALID,998.879,VALID,0,VALID,92.0132,VALID,0,VALID,24.4251,VALID,208,VALID,0.619531,
2009-01-19, 02:40:04,VALID,998.869,VALID,0,VALID,91.7004,VALID,0,VALID,24.4855,VALID,223,VALID,0.878906,
2009-01-19, 02:41:04,VALID,998.875,VALID,0,VALID,91.3647,VALID,0,VALID,24.5246,VALID,235,VALID,1.02344,
2009-01-19, 02:42:04,VALID,998.924,VALID,0,VALID,91.5249,VALID,0,VALID,24.5441,VALID,258,VALID,0.622656,
2009-01-19, 02:43:04,VALID,998.912,VALID,0,VALID,91.3571,VALID,0,VALID,24.5227,VALID,238,VALID,0.566016,
2009-01-19, 02:44:04,VALID,998.933,VALID,0,VALID,91.441,VALID,0,VALID,24.5441,VALID,227,VALID,0.36875,
2009-01-19, 02:45:04,VALID,998.952,VALID,0,VALID,90.9146,VALID,0,VALID,24.5441,VALID,187,VALID,0.633203,
2009-01-19, 02:46:04,VALID,998.993,VALID,0,VALID,89.442,VALID,0,VALID,24.5246,VALID,153,VALID,0.654688,
2009-01-19, 02:47:04,VALID,998.991,VALID,0,VALID,88.3663,VALID,0,VALID,24.5246,VALID,139,VALID,0.824219,
2009-01-19, 02:48:04,VALID,999.013,VALID,0,VALID,88.5417,VALID,0,VALID,24.5441,VALID,136,VALID,0.696875,
2009-01-19, 02:49:04,VALID,999.032,VALID,0,VALID,89.2132,VALID,0,VALID,24.5227,VALID,104,VALID,0.460547,
2009-01-19, 02:50:04,VALID,999.016,VALID,0,VALID,88.9537,VALID,0,VALID,24.5227,VALID,104,VALID,0.389844,
2009-01-19, 02:51:04,VALID,998.998,VALID,0,VALID,88.9003,VALID,0,VALID,24.5227,VALID,102,VALID,0.545703,
2009-01-19, 02:52:04,VALID,999.007,VALID,0,VALID,88.5951,VALID,0,VALID,24.5032,VALID,94,VALID,0.690234,
2009-01-19, 02:53:04,VALID,999,VALID,0,VALID,88.6104,VALID,0,VALID,24.5032,VALID,68,VALID,0.719531,
2009-01-19, 02:54:04,VALID,998.975,VALID,0,VALID,88.8698,VALID,0,VALID,24.5032,VALID,55,VALID,0.838672,
2009-01-19, 02:55:04,VALID,998.992,VALID,0,VALID,89.2589,VALID,0,VALID,24.4837,VALID,53,VALID,0.976172,
2009-01-19, 02:56:04,VALID,998.954,VALID,0,VALID,89.5641,VALID,0,VALID,24.5051,VALID,57,VALID,0.848047,
2009-01-19, 02:57:04,VALID,998.975,VALID,0,VALID,89.7625,VALID,0,VALID,24.4855,VALID,67,VALID,0.502734,
2009-01-19, 02:58:04,VALID,998.959,VALID,0,VALID,90.1058,VALID,0,VALID,24.466,VALID,84,VALID,0.330078,
2009-01-19, 02:59:04,VALID,998.97,VALID,0,VALID,90.2203,VALID,0,VALID,24.4465,VALID,84,VALID,0.280859,
2009-01-19, 03:00:04,VALID,998.929,VALID,0,VALID,90.2431,VALID,0,VALID,24.427,VALID,91,VALID,0.499219,
2009-01-19, 03:01:04,VALID,998.919,VALID,0,VALID,90.5102,VALID,0,VALID,24.4056,VALID,92,VALID,0.610156,
2009-01-19, 03:02:04,VALID,998.893,VALID,0,VALID,90.4186,VALID,0,VALID,24.3861,VALID,104,VALID,0.771094,
2009-01-19, 03:03:04,VALID,998.871,VALID,0,VALID,90.9985,VALID,0,VALID,24.3861,VALID,109,VALID,0.882422,
2009-01-19, 03:04:04,VALID,998.839,VALID,0,VALID,91.1206,VALID,0,VALID,24.3879,VALID,107,VALID,0.811719,
2009-01-19, 03:05:04,VALID,998.858,VALID,0,VALID,91.2808,VALID,0,VALID,24.3666,VALID,105,VALID,0.649609,
2009-01-19, 03:06:04,VALID,998.861,VALID,0,VALID,90.9527,VALID,0,VALID,24.3275,VALID,82,VALID,0.750781,
2009-01-19, 03:07:04,VALID,998.862,VALID,0,VALID,90.9909,VALID,0,VALID,24.3275,VALID,48,VALID,0.884766,
2009-01-19, 03:08:04,VALID,998.869,VALID,0,VALID,91.3952,VALID,0,VALID,24.3294,VALID,28,VALID,0.848047,
2009-01-19, 03:09:04,VALID,998.834,VALID,0,VALID,91.235,VALID,0,VALID,24.2903,VALID,19,VALID,1.28828,
2009-01-19, 03:10:04,VALID,998.858,VALID,0,VALID,91.3494,VALID,0,VALID,24.2708,VALID,30,VALID,1.08086,
2009-01-19, 03:11:04,VALID,998.849,VALID,0,VALID,91.0824,VALID,0,VALID,24.2318,VALID,26,VALID,1.16953,
2009-01-19, 03:12:04,VALID,998.864,VALID,0,VALID,91.3876,VALID,0,VALID,24.2318,VALID,37,VALID,1.10352,
2009-01-19, 03:13:04,VALID,998.897,VALID,0,VALID,91.5478,VALID,0,VALID,24.2123,VALID,41,VALID,1.03477,
2009-01-19, 03:14:04,VALID,998.861,VALID,0,VALID,91.853,VALID,0,VALID,24.1927,VALID,43,VALID,0.937891,
2009-01-19, 03:15:04,VALID,998.835,VALID,0,VALID,92.1277,VALID,0,VALID,24.1714,VALID,47,VALID,0.897266,
2009-01-19, 03:16:04,VALID,998.844,VALID,0,VALID,92.0056,VALID,0,VALID,24.1519,VALID,59,VALID,1.05938,
2009-01-19, 03:17:04,VALID,998.857,VALID,0,VALID,92.1353,VALID,0,VALID,24.1714,VALID,69,VALID,0.975391,
2009-01-19, 03:18:04,VALID,998.795,VALID,0,VALID,92.2726,VALID,0,VALID,24.1519,VALID,72,VALID,1.13633,
2009-01-19, 03:19:04,VALID,998.787,VALID,0,VALID,92.2268,VALID,0,VALID,24.1537,VALID,74,VALID,0.957031,
2009-01-19, 03:20:04,VALID,998.781,VALID,0,VALID,92.41,VALID,0,VALID,24.1324,VALID,79,VALID,0.792578,
2009-01-19, 03:21:04,VALID,998.755,VALID,0,VALID,92.3718,VALID,0,VALID,24.0933,VALID,83,VALID,0.678516,
2009-01-19, 03:22:04,VALID,998.739,VALID,0,VALID,91.9598,VALID,0,VALID,24.0756,VALID,94,VALID,0.908984,
2009-01-19, 03:23:04,VALID,998.741,VALID,0,VALID,91.7233,VALID,0,VALID,24.0561,VALID,95,VALID,0.873047,
2009-01-19, 03:24:04,VALID,998.715,VALID,0,VALID,91.9064,VALID,0,VALID,24.0561,VALID,91,VALID,0.561719,
2009-01-19, 03:25:04,VALID,998.711,VALID,0,VALID,91.9522,VALID,0,VALID,24.0153,VALID,69,VALID,0.780469,
2009-01-19, 03:26:04,VALID,998.759,VALID,0,VALID,91.9522,VALID,0,VALID,23.9957,VALID,61,VALID,0.654688,
2009-01-19, 03:27:04,VALID,998.718,VALID,0,VALID,92.1582,VALID,0,VALID,23.978,VALID,61,VALID,0.351172,
2009-01-19, 03:28:04,VALID,998.732,VALID,0,VALID,92.3108,VALID,0,VALID,23.9585,VALID,58,VALID,0.406641,
2009-01-19, 03:29:04,VALID,998.737,VALID,0,VALID,92.3947,VALID,0,VALID,23.9195,VALID,49,VALID,0.556641,
2009-01-19, 03:30:04,VALID,998.753,VALID,0,VALID,92.471,VALID,0,VALID,23.8786,VALID,49,VALID,0.646094,
2009-01-19, 03:31:04,VALID,998.742,VALID,0,VALID,92.8296,VALID,0,VALID,23.9,VALID,41,VALID,0.687891,
2009-01-19, 03:32:04,VALID,998.758,VALID,0,VALID,92.9135,VALID,0,VALID,23.8609,VALID,40,VALID,0.618359,
2009-01-19, 03:33:04,VALID,998.766,VALID,0,VALID,92.9517,VALID,0,VALID,23.8201,VALID,40,VALID,0.672266,
2009-01-19, 03:34:04,VALID,998.757,VALID,0,VALID,93.3179,VALID,0,VALID,23.8201,VALID,40,VALID,0.705469,
2009-01-19, 03:35:04,VALID,998.775,VALID,0,VALID,93.4018,VALID,0,VALID,23.8414,VALID,40,VALID,0.443359,
2009-01-19, 03:36:04,VALID,998.756,VALID,0,VALID,93.5697,VALID,0,VALID,23.8414,VALID,40,VALID,0.342187,
2009-01-19, 03:37:04,VALID,998.722,VALID,0,VALID,93.562,VALID,0,VALID,23.8219,VALID,40,VALID,0.112109,
2009-01-19, 03:38:04,VALID,998.709,VALID,0,VALID,93.6231,VALID,0,VALID,23.8219,VALID,40,VALID,0,
2009-01-19, 03:39:04,VALID,998.714,VALID,0,VALID,93.7528,VALID,0,VALID,23.8414,VALID,40,VALID,0,
2009-01-19, 03:40:04,VALID,998.678,VALID,0,VALID,93.7833,VALID,0,VALID,23.8201,VALID,40,VALID,0,
2009-01-19, 03:41:04,VALID,998.684,VALID,0,VALID,93.8062,VALID,0,VALID,23.8219,VALID,40,VALID,0,
2009-01-19, 03:42:04,VALID,998.67,VALID,0,VALID,93.8443,VALID,0,VALID,23.8219,VALID,40,VALID,0,
2009-01-19, 03:43:04,VALID,998.666,VALID,0,VALID,93.9054,VALID,0,VALID,23.8219,VALID,40,VALID,0,
2009-01-19, 03:44:04,VALID,998.66,VALID,0,VALID,93.913,VALID,0,VALID,23.8006,VALID,40,VALID,0,
2009-01-19, 03:45:04,VALID,998.663,VALID,0,VALID,93.8367,VALID,0,VALID,23.8024,VALID,40,VALID,0,
2009-01-19, 03:46:04,VALID,998.664,VALID,0,VALID,93.8977,VALID,0,VALID,23.7829,VALID,40,VALID,0,
2009-01-19, 03:47:04,VALID,998.653,VALID,0,VALID,94.0045,VALID,0,VALID,23.7811,VALID,40,VALID,0,
2009-01-19, 03:48:04,VALID,998.672,VALID,0,VALID,94.0732,VALID,0,VALID,23.7811,VALID,40,VALID,0,
2009-01-19, 03:49:04,VALID,998.663,VALID,0,VALID,94.119,VALID,0,VALID,23.7811,VALID,40,VALID,0,